STARLINK-34203, 64246

Orbit data source: Space-Track

STARLINK-34203, 64246 is a payload satellite owned by SpaceX/Seattle (US) in LEO that was launched on Tue, 03 Jun 2025 UTC via an FALCON 9 launch vehicle from the Air Force Eastern Test Range (AFETR). Payload-class satellites include a variety of spacecraft equipped with specific instruments for various scientific and technological missions. These include communications satellites like Starlink; space stations such as the ISS; scientific satellites like the Hubble; Earth observation satellites from companies like Planet Labs, Umbra, and HawkEye 360; GPS; miniature CubeSats for education and research; and military/defense satellites.

Loading next visibility...
Identifier
64246, 2025-119P
Orbit
LEO
Country
Flag of USUS
Related business
Manufacturer
SpaceX/Seattle
Mission
Operational Commercial Communications
Bus & Motor
STARLINK V2MO, Unknown motor
Mass
575 kg wet, ~530 kg dry
Launch date (UTC)
2025-06-03 (1 year ago)
Launch vehicle
FALCON 9
Launch site
Air Force Eastern Test Range (AFETR)
Object type
Payload
Rocket body
Debris
Shape & HBR
Box + 2 Pan, 17.7 m
Radar Cross Section
36.964 m², Large (>1 m²)

Expand to show TLE details & history
Last TLE update: 16 hours ago

TLE from 16 hours ago
0 STARLINK-34203
1 64246U 25119P   26171.17159150  .00015414  00000-0  56808-3 0  9991
2 64246  43.0025  88.1998 0001642 270.4083  89.6580 15.27602441 59853
Epoch: 2026-06-20T04:07Z
TLE epoch observation values (Epoch: 2026-06-20T04:07:05.505Z)
Latitude
-0.00006°
Longitude
118.03676°
Altitude
482.751 km
Speed
7.626 km/s
True Right ascension
05h 52m 47s
True Declination
0° 00' 00"
Sunlit
Object was in daylight at epoch
Visualization orbit readout
Latitude
Unknown
Longitude
Unknown
Altitude
Unknown
Speed
Unknown
Apparent Right ascension
Unknown
Apparent Declination
Unknown
Sunlit
N/A
Visualization observer readout
Local Sidereal Time
07:15:08
Azimuth
Unknown
Elevation
Unknown
Doppler factor
Unknown
Orbital elements
Apogee altitude
486.054 km
Perigee altitude
483.8 km
Semi-major axis
6,863.064 km
Eccentricity
0.00016
Inclination
43.0025°
RAAN
88.1998°
Arg. of periapsis
270.4083°
True anomaly
89.67682°
Mean anomaly
89.658°
Eccentric anomaly
89.66741°
Mean motion
3.81739 °/min
Orbital period
94.31 mins
BSTAR
0.00056808
Loading maneuver chart data...
Computing Atmospheric mass density...
Loading historical data...
Loading historical data...
Loading historical data...
Loading historical data...
Loading historical data...
Loading historical data...
Loading historical data...

Documentation

Showing up to 5 results
|